Miscellaneous Local Product
Issued by NWS North Platte, NE

Home | Current Version | Previous Version | Graphics & Text | Print | Product List | Glossary On
Versions: 1 2 3 4 5 6 7 8 9 10 11 12 13 14 15 16 17 18 19 20 21 22 23 24 25 26 27 28 29 30 31 32 33 34 35 36 37 38 39 40 41 42 43 44 45 46 47 48 49 50
000
AXUS43 KLBF 022210
MISLBF


WESTERN AND NORTH CENTRAL NEBRASKA HOURLY WEATHER ROUNDUP
NATIONAL WEATHER SERVICE NORTH PLATTE NE
500 PM CDT TUE JUN 02 2015

***STATIONS NOT REPORTING VARIABLES SUCH AS SKY/WEATHER OR
PRESSURE ARE PROVIDED BY THE NEBRASKA DEPARTMENT OF
ROADS...RAWS...AND APRS NETWORKS...AND ARE NOT UNDER
NATIONAL WEATHER SERVICE QUALITY CONTROL***

...OBSERVATIONS IN AND NEAR THE EASTERN PANHANDLE OF NEBRASKA...

CITY           SKY/WX    TMP DP  RH WIND       PRES   REMARKS
PINE RIDGE     MOSUNNY   83  56  39 SE3       29.78F
CHADRON        MOSUNNY   77  61  57 E10       29.76F
ALLIANCE       MOSUNNY   82  61  48 SE8       29.80F
SIDNEY         MOSUNNY   83  59  44 SE3       29.85F
WHITECLAY        N/A     83  55  37 CALM        N/A
CRESCENT LAKE    N/A     83  59  44 SE6         N/A
BIG SPRINGS      N/A     84  66  54 SE14        N/A
$$

...OBSERVATIONS IN NORTH CENTRAL NEBRASKA...

CITY           SKY/WX    TMP DP  RH WIND       PRES   REMARKS
VALENTINE      MOSUNNY   88  58  36 S10       29.77
THEDFORD       MOSUNNY   85  65  51 S10G20    29.81F
AINSWORTH      MOSUNNY   85  63  47 S17       29.80F
O`NEILL        MOSUNNY   78  64  62 S16       29.83S
ORD            CLOUDY    72  61  68 S14       29.84F
BROKEN BOW     PTSUNNY   75  65  70 SE18      29.84F
BROWNLEE         N/A     93  59  31 S8          N/A  HX  92
VALENTINE NWR    N/A     87  58  37 S8G18       N/A
SPRINGVIEW       N/A     87  66  49 S9G16       N/A
HALSEY           N/A     83  63  50 S9G18       N/A
NEWPORT          N/A     81  65  58 S14         N/A
SARGENT          N/A     74  66  75 SE3         N/A
CHAMBERS         N/A     80  66  61 S10         N/A
EWING            N/A     78  66  66 S9G18       N/A
$$

...OBSERVATIONS IN SOUTHWEST NEBRASKA AND FAR NORTHEAST COLORADO...

CITY           SKY/WX    TMP DP  RH WIND       PRES   REMARKS
WRAY           FAIR      90  61  37 CALM      29.82F
IMPERIAL       SUNNY     84  65  52 SE10      29.80F
OGALLALA       SUNNY     85  64  48 SE10G18   29.81F
NORTH PLATTE   PTSUNNY   83  67  58 SE9       29.80F
MCCOOK         MOSUNNY   86  64  47 S15       29.79F
LEXINGTON      SUNNY     80  68  65 S13       29.83F
PAXTON           N/A     84  67  56 SE8         N/A
GOTHENBURG       N/A     80  62  54 SE12        N/A
CALLAWAY         N/A     81  70  69 SE20        N/A
$$

...NORTH PLATTE AREA...

CITY           SKY/WX    TMP DP  RH WIND       PRES   REMARKS
AIRPORT        PTSUNNY   83  67  58 SE9       29.80F
$$

...SOME WEATHER OBSERVATIONS FROM AROUND THE REGION...

CITY           SKY/WX    TMP DP  RH WIND       PRES   REMARKS
DENVER         MOSUNNY   86  41  20 E12       29.89F
LARAMIE        SUNNY     76  29  17 SW18G32   30.04F
CHEYENNE       MOSUNNY   81  31  16 W6G17     29.95F
SCOTTSBLUFF    PTSUNNY   87  51  28 VRB3      29.79F
RAPID CITY     PTSUNNY   79  57  46 N16       29.81F
PIERRE         MOSUNNY   88  56  33 W12       29.69S
WINNER         FAIR      92  60  34 S17       29.74F HX  91
SIOUX FALLS    PTSUNNY   78  62  57 S17G26    29.83F
OMAHA          CLOUDY    74  60  61 SE22G29   29.92F
GRAND ISLAND   MOSUNNY   82  63  52 S14G25    29.85F
KANSAS CITY    CLOUDY    72  61  68 SE14      29.98F
WICHITA        MOSUNNY   88  64  44 S21       29.86F
HAYS           MOSUNNY   88  64  45 S20G26    29.81F
LIBERAL        SUNNY     91  63  38 S18G28    29.83F HX  92
GOODLAND       SUNNY     87  57  35 SE8       29.82F
$$



USA.gov is the U.S. government's official web portal to all federal, state and local government web resources and services.